EW2498 Weather Reports


Display with metric or nautical units.
time (UTC)temp
F
wind
direction
speed
MPH
gust
MPH
rain 1hr
in
rain 24hr
in
rain mn
in
humidity
%
barometer
mb
20260507144804 85 110 10.0 12.0 0.00 0.00 0.00 71 1010.0
20260507144305 85 118 10.0 13.0 0.00 0.00 0.00 71 1010.0
20260507143804 84 116 12.0 13.0 0.00 0.00 0.00 71 1010.1
20260507143304 85 114 12.0 14.0 0.00 0.00 0.00 70 1010.2
20260507142306 86 133 11.0 13.0 0.00 0.00 0.00 66 1010.3
20260507141804 87 128 7.0 13.0 0.00 0.00 0.00 65 1010.3
20260507141305 87 157 7.0 13.0 0.00 0.00 0.00 65 1010.3
20260507135306 86 156 9.0 13.0 0.00 0.00 0.00 65 1010.7
20260507134304 86 146 10.0 13.0 0.00 0.00 0.00 67 1010.8
20260507133305 86 143 10.0 14.0 0.00 0.00 0.00 67 1010.9
20260507132307 85 138 11.0 13.0 0.00 0.00 0.00 69 1011.0
20260507131304 83 136 11.0 13.0 0.00 0.00 0.00 73 1011.2
20260507123804 82 117 6.0 8.0 0.00 0.00 0.00 78 1011.4
20260507123308 82 117 6.0 7.0 0.00 0.00 0.00 77 1011.4
20260507122804 82 117 6.0 8.0 0.00 0.00 0.00 77 1011.4
20260507122307 82 117 6.0 8.0 0.00 0.00 0.00 77 1011.4
20260507121804 82 115 7.0 10.0 0.00 0.00 0.00 76 1011.4
20260507121304 82 121 6.0 9.0 0.00 0.00 0.00 76 1011.5
20260507120804 82 122 6.0 8.0 0.00 0.00 0.00 76 1011.6
20260507115307 82 132 6.0 10.0 0.00 0.00 0.00 76 1011.5
20260507114804 82 155 7.0 10.0 0.00 0.00 0.00 76 1011.4
20260507113312 82 142 2.0 7.0 0.00 0.00 0.00 78 1011.4
20260507112804 81 186 3.0 8.0 0.00 0.00 0.00 78 1011.4
20260507112307 81 232 2.0 5.0 0.00 0.00 0.00 78 1011.4
20260507111304 81 177 2.0 5.0 0.00 0.00 0.00 79 1011.4
20260507110804 81 222 0.0 2.0 0.00 0.00 0.00 79 1011.4
20260507110304 81 189 1.0 2.0 0.00 0.00 0.00 80 1011.3
20260507105804 81 232 1.0 3.0 0.00 0.00 0.00 80 1011.3
20260507105306 81 167 1.0 3.0 0.00 0.00 0.00 80 1011.2
20260507103805 80 213 1.0 2.0 0.00 0.01 0.00 81 1011.0
20260507102307 80 223 2.0 3.0 0.00 0.01 0.00 82 1011.0
20260507100804 79 249 1.0 3.0 0.00 0.01 0.00 82 1010.9
20260507100304 79 263 1.0 3.0 0.00 0.01 0.00 82 1010.8
20260507095804 78 260 1.0 2.0 0.00 0.01 0.00 82 1010.9
20260507094804 78 254 1.0 2.0 0.00 0.01 0.00 82 1010.7
20260507094304 78 248 1.0 2.0 0.00 0.01 0.00 82 1010.7
20260507093804 78 276 0.0 0.0 0.00 0.01 0.00 82 1010.6
20260507085306 77 247 0.0 0.0 0.00 0.01 0.00 83 1010.3
20260507084804 77 273 0.0 0.0 0.00 0.01 0.00 83 1010.2
20260507084304 77 238 0.0 0.0 0.00 0.01 0.00 83 1010.2
20260507075307 77 245 0.0 0.0 0.00 0.01 0.00 83 1009.6
20260507074804 77 271 0.0 0.0 0.00 0.01 0.00 83 1009.6
20260507072804 76 265 0.0 0.0 0.00 0.01 0.00 83 1009.5
20260507072306 76 270 0.0 0.0 0.00 0.01 0.00 83 1009.5
20260507071804 76 283 0.0 0.0 0.00 0.01 0.00 84 1009.5
20260507070804 76 255 0.0 0.0 0.00 0.01 0.00 84 1009.5
20260507065306 76 272 0.0 0.0 0.00 0.01 0.00 84 1009.6
20260507064804 76 274 0.0 0.0 0.00 0.01 0.00 84 1009.6
20260507063304 76 240 0.0 0.0 0.00 0.01 0.00 84 1009.7
20260507062805 76 220 0.0 0.0 0.00 0.01 0.00 84 1009.6
20260507061805 76 238 0.0 0.0 0.00 0.01 0.00 84 1009.5
20260507054804 76 277 0.0 0.0 0.00 0.01 0.00 84 1009.6
20260507053305 76 258 0.0 0.0 0.00 0.01 0.00 83 1009.7
20260507052306 77 268 0.0 0.0 0.00 0.03 0.00 83 1009.7
20260507044804 77 235 0.0 0.0 0.00 0.04 0.00 83 1009.9
20260507043804 77 232 0.0 0.0 0.00 0.05 0.00 82 1009.8
20260507041805 77 228 0.0 0.0 0.00 0.09 0.00 82 1009.9
20260507041304 77 238 0.0 0.0 0.00 0.09 0.00 82 1009.8
20260507040804 77 228 0.0 0.0 0.00 0.09 0.00 82 1009.9
20260507040304 78 240 0.0 0.0 0.00 0.09 0.00 82 1010.0
20260507033304 78 258 0.0 0.0 0.00 0.11 0.00 82 1010.1
20260507032306 78 258 0.0 0.0 0.00 0.11 0.00 82 1010.2
20260507031804 78 258 0.0 0.0 0.00 0.11 0.00 82 1010.2
20260507031304 78 267 0.0 0.0 0.00 0.11 0.00 82 1010.2
20260507024805 78 263 0.0 0.0 0.00 0.11 0.11 81 1010.5
20260507024304 78 263 0.0 0.0 0.00 0.11 0.11 81 1010.5
20260507023304 78 268 0.0 0.0 0.00 0.11 0.11 81 1010.6
20260507022804 78 277 0.0 0.0 0.00 0.11 0.11 81 1010.6
20260507022306 78 286 0.0 0.0 0.00 0.11 0.11 81 1010.6
20260507020804 78 286 0.0 0.0 0.00 0.11 0.11 81 1010.8
20260507015306 78 287 0.0 0.0 0.00 0.11 0.11 81 1010.8
20260507014805 78 286 0.0 0.0 0.00 0.11 0.11 81 1010.8
20260507012805 79 272 0.0 0.0 0.00 0.11 0.11 80 1010.9
20260507011305 79 288 2.0 3.0 0.00 0.11 0.11 81 1010.9
20260507010805 79 271 2.0 5.0 0.00 0.11 0.11 81 1010.9
20260507010305 79 248 1.0 5.0 0.00 0.11 0.11 81 1011.0
20260507005805 79 219 1.0 3.0 0.00 0.11 0.11 80 1011.0
20260507005305 79 274 1.0 2.0 0.00 0.11 0.11 80 1011.0
20260507004804 79 255 0.0 2.0 0.00 0.11 0.11 80 1011.0
20260507004304 79 266 0.0 1.0 0.00 0.11 0.11 80 1010.9
20260507003304 79 280 1.0 3.0 0.00 0.11 0.11 80 1010.9
20260507002804 79 278 1.0 2.0 0.00 0.11 0.11 80 1010.9
20260507001804 79 281 2.0 5.0 0.00 0.11 0.11 80 1010.8
20260506235805 79 277 2.0 5.0 0.00 0.11 0.11 80 1010.9
20260506233804 79 271 2.0 5.0 0.00 0.11 0.11 80 1010.6
20260506232804 79 267 2.0 3.0 0.00 0.11 0.11 79 1010.6
20260506232306 79 275 2.0 3.0 0.00 0.11 0.11 79 1010.6
20260506225306 80 266 2.0 5.0 0.00 0.11 0.11 77 1010.5
20260506224304 81 274 2.0 3.0 0.00 0.11 0.11 76 1010.5
20260506223804 81 240 1.0 3.0 0.00 0.11 0.11 76 1010.5
20260506222804 82 127 0.0 2.0 0.00 0.11 0.11 75 1010.6
20260506222306 82 176 1.0 3.0 0.00 0.11 0.11 75 1010.6
20260506221804 82 196 5.0 8.0 0.00 0.11 0.11 75 1010.5
20260506220304 83 168 8.0 14.0 0.00 0.11 0.11 75 1010.4
20260506215306 83 151 8.0 14.0 0.00 0.11 0.11 75 1010.3
20260506214303 83 145 13.0 16.0 0.00 0.11 0.11 75 1010.3
20260506213804 83 148 14.0 17.0 0.00 0.11 0.11 75 1010.2
20260506213304 83 143 14.0 16.0 0.00 0.11 0.11 75 1010.2
20260506210804 83 135 18.0 20.0 0.00 0.11 0.11 75 1010.0
20260506205804 83 138 17.0 20.0 0.00 0.11 0.11 75 1010.0
20260506205306 83 134 15.0 17.0 0.00 0.11 0.11 75 1010.0
20260506204804 83 132 17.0 20.0 0.00 0.11 0.11 75 1010.0
20260506204304 83 132 17.0 20.0 0.00 0.11 0.11 76 1009.9
20260506203304 83 135 16.0 18.0 0.00 0.11 0.11 74 1010.0
20260506202306 83 135 16.0 17.0 0.00 0.11 0.11 74 1010.0
20260506201304 84 134 17.0 18.0 0.00 0.11 0.11 74 1009.9
20260506200804 84 137 16.0 18.0 0.00 0.11 0.11 74 1010.0
20260506200304 84 133 16.0 18.0 0.00 0.11 0.11 74 1010.0
20260506194804 84 140 18.0 21.0 0.00 0.11 0.11 73 1010.1
20260506194304 84 134 17.0 18.0 0.00 0.11 0.11 73 1010.1
20260506193804 84 135 17.0 20.0 0.00 0.11 0.11 73 1010.1
20260506192804 85 137 16.0 21.0 0.00 0.11 0.11 73 1010.0
20260506190804 84 130 18.0 21.0 0.00 0.11 0.11 72 1010.0
20260506190304 84 133 19.0 21.0 0.00 0.11 0.11 72 1010.0
20260506184304 84 128 20.0 22.0 0.00 0.11 0.11 71 1009.9
20260506182803 84 134 21.0 23.0 0.00 0.11 0.11 71 1009.7
20260506182306 84 131 19.0 23.0 0.00 0.11 0.11 72 1009.7
20260506181804 85 133 18.0 22.0 0.00 0.11 0.11 73 1009.7
20260506180804 84 131 20.0 22.0 0.00 0.11 0.11 72 1009.7
20260506180304 84 133 20.0 23.0 0.00 0.11 0.11 72 1009.8
20260506175804 84 132 21.0 24.0 0.00 0.11 0.11 71 1009.7
20260506174804 85 131 18.0 22.0 0.00 0.11 0.11 71 1009.6
20260506174304 85 130 18.0 21.0 0.00 0.11 0.11 71 1009.6
20260506172804 85 126 17.0 20.0 0.00 0.11 0.11 71 1009.7
20260506172306 85 127 17.0 20.0 0.00 0.11 0.11 71 1009.7
20260506170804 85 124 16.0 17.0 0.00 0.11 0.11 70 1009.9
20260506170304 86 123 13.0 15.0 0.00 0.11 0.11 69 1010.0
20260506165305 86 136 13.0 17.0 0.00 0.11 0.11 65 1010.2
20260506163304 89 179 3.0 13.0 0.00 0.11 0.11 55 1010.4
20260506162307 90 191 4.0 13.0 0.00 0.11 0.11 55 1010.4
20260506161304 89 193 6.0 14.0 0.00 0.11 0.11 55 1010.6
20260506160804 90 168 7.0 13.0 0.00 0.11 0.11 56 1010.7
20260506155804 89 190 4.0 10.0 0.00 0.11 0.11 56 1010.8
20260506153804 90 213 4.0 13.0 0.00 0.11 0.11 58 1011.1
20260506152305 89 210 3.0 8.0 0.00 0.11 0.11 59 1011.3
20260506151804 89 213 3.0 12.0 0.00 0.11 0.11 59 1011.3
20260506151304 89 164 5.0 10.0 0.00 0.11 0.11 58 1011.5
20260506150804 89 238 5.0 13.0 0.00 0.11 0.11 59 1011.5
20260506150305 89 201 6.0 13.0 0.00 0.11 0.11 59 1011.5